Time,TemperatureF,DewpointF,PressureIn,WindDirection,WindDirectionDegrees,WindSpeedMPH,WindSpeedGustMPH,Humidity,HourlyPrecipIn,Conditions,Clouds,dailyrainin,SoftwareType,DateUTC
2013-11-19 00:22:00,35.0,28.0,-100.00,NNW,330,6.0,12.0,72,-99.99,,,-99.99,,2013-11-19 05:22:00,
2013-11-19 00:53:00,35.0,27.0,-100.00,North,0,7.0,17.0,71,-99.99,,,-99.99,,2013-11-19 05:53:00,
2013-11-19 01:22:00,36.0,28.0,-100.00,NNW,330,6.0,16.0,72,-99.99,,,-99.99,,2013-11-19 06:22:00,
2013-11-19 01:52:00,36.0,28.0,-100.00,NNW,340,7.0,14.0,72,-99.99,,,-99.99,,2013-11-19 06:52:00,
2013-11-19 02:22:00,36.0,28.0,-100.00,NNW,335,6.0,15.0,73,-99.99,,,-99.99,,2013-11-19 07:22:00,
2013-11-19 02:52:00,36.0,28.0,-100.00,North,0,6.0,13.0,73,-99.99,,,-99.99,,2013-11-19 07:52:00,
2013-11-19 03:22:00,36.0,28.0,-100.00,NNW,345,6.0,11.0,73,-99.99,,,-99.99,,2013-11-19 08:22:00,
2013-11-19 04:21:00,36.0,28.0,-100.00,North,350,6.0,12.0,73,-99.99,,,-99.99,,2013-11-19 09:21:00,
2013-11-19 04:53:00,36.0,28.0,-100.00,North,0,7.0,12.0,73,-99.99,,,-99.99,,2013-11-19 09:53:00,
2013-11-19 05:23:00,36.0,29.0,-100.00,NNW,345,7.0,11.0,74,-99.99,,,-99.99,,2013-11-19 10:23:00,
2013-11-19 05:53:00,36.0,28.0,-100.00,NNW,335,4.0,12.0,74,-99.99,,,-99.99,,2013-11-19 10:53:00,
2013-11-19 06:23:00,36.0,29.0,-100.00,North,0,4.0,9.0,76,-99.99,,,-99.99,,2013-11-19 11:23:00,
2013-11-19 06:52:00,36.0,29.0,-100.00,North,5,6.0,10.0,76,-99.99,,,-99.99,,2013-11-19 11:52:00,
2013-11-19 07:21:00,36.0,29.0,-100.00,NNE,25,7.0,12.0,76,-99.99,,,-99.99,,2013-11-19 12:21:00,
2013-11-19 07:52:00,36.0,29.0,-100.00,NNE,15,6.0,11.0,76,-99.99,,,-99.99,,2013-11-19 12:52:00,
2013-11-19 08:52:00,36.0,30.0,-100.00,NNE,15,6.0,9.0,77,-99.99,,,-99.99,,2013-11-19 13:52:00,
2013-11-19 09:22:00,36.0,30.0,-100.00,North,355,6.0,11.0,77,-99.99,,,-99.99,,2013-11-19 14:22:00,
2013-11-19 09:52:00,36.0,30.0,-100.00,NNE,25,6.0,13.0,77,-99.99,,,-99.99,,2013-11-19 14:52:00,
2013-11-19 10:22:00,36.0,28.0,-100.00,North,10,7.0,12.0,73,-99.99,,,-99.99,,2013-11-19 15:22:00,
2013-11-19 10:53:00,36.0,28.0,-100.00,NNE,25,9.0,13.0,73,-99.99,,,-99.99,,2013-11-19 15:53:00,
2013-11-19 11:23:00,36.0,28.0,-100.00,NNE,25,9.0,14.0,71,-99.99,,,-99.99,,2013-11-19 16:23:00,
2013-11-19 11:52:00,36.0,27.0,-100.00,NNE,20,11.0,15.0,68,-99.99,,,-99.99,,2013-11-19 16:52:00,
2013-11-19 12:22:00,36.0,27.0,-100.00,North,5,5.0,15.0,68,-99.99,,,-99.99,,2013-11-19 17:22:00,
2013-11-19 12:52:00,36.0,27.0,-100.00,NE,55,6.0,11.0,68,-99.99,,,-99.99,,2013-11-19 17:52:00,
2013-11-19 13:22:00,36.0,27.0,-100.00,NE,55,9.0,11.0,70,-99.99,,,-99.99,,2013-11-19 18:22:00,
2013-11-19 13:52:00,36.0,27.0,-100.00,NE,45,8.0,11.0,69,-99.99,,,-99.99,,2013-11-19 18:52:00,
2013-11-19 14:21:00,36.0,26.0,-100.00,NE,40,7.0,12.0,67,-99.99,,,-99.99,,2013-11-19 19:21:00,
2013-11-19 14:52:00,36.0,26.0,-100.00,North,0,6.0,9.0,66,-99.99,,,-99.99,,2013-11-19 19:52:00,
2013-11-19 15:21:00,37.0,26.0,-100.00,NE,40,7.0,10.0,64,-99.99,,,-99.99,,2013-11-19 20:21:00,
2013-11-19 15:52:00,36.0,26.0,-100.00,North,10,3.0,7.0,66,-99.99,,,-99.99,,2013-11-19 20:52:00,
2013-11-19 16:21:00,36.0,26.0,-100.00,NNE,25,1.0,7.0,66,-99.99,,,-99.99,,2013-11-19 21:21:00,
2013-11-19 16:54:00,36.0,26.0,-100.00,NE,45,2.0,6.0,68,-99.99,,,-99.99,,2013-11-19 21:54:00,
2013-11-19 17:23:00,36.0,27.0,-100.00,North,5,1.0,4.0,68,-99.99,,,-99.99,,2013-11-19 22:23:00,
2013-11-19 17:53:00,36.0,27.0,-100.00,NNE,30,2.0,4.0,69,-99.99,,,-99.99,,2013-11-19 22:53:00,
2013-11-19 18:22:00,35.0,27.0,-100.00,North,0,1.0,2.0,70,-99.99,,,-99.99,,2013-11-19 23:22:00,
2013-11-19 18:52:00,35.0,27.0,-100.00,WNW,300,1.0,3.0,72,-99.99,,,-99.99,,2013-11-19 23:52:00,
2013-11-19 19:22:00,34.0,26.0,-100.00,West,275,2.0,2.0,74,-99.99,,,-99.99,,2013-11-20 00:22:00,
2013-11-19 19:52:00,34.0,27.0,-100.00,West,280,2.0,2.0,74,-99.99,,,-99.99,,2013-11-20 00:52:00,
2013-11-19 20:22:00,33.0,26.0,-100.00,West,275,2.0,4.0,75,-99.99,,,-99.99,,2013-11-20 01:22:00,
2013-11-19 20:52:00,31.0,25.0,-100.00,West,275,1.0,1.0,79,-99.99,,,-99.99,,2013-11-20 01:52:00,
2013-11-19 21:22:00,30.0,26.0,-100.00,West,270,0.0,0.0,81,-99.99,,,-99.99,,2013-11-20 02:22:00,
2013-11-19 21:52:00,31.0,26.0,-100.00,SE,135,0.0,1.0,82,-99.99,,,-99.99,,2013-11-20 02:52:00,
2013-11-19 22:21:00,29.0,26.0,-100.00,SE,140,0.0,0.0,84,-99.99,,,-99.99,,2013-11-20 03:21:00,
2013-11-19 22:54:00,29.0,26.0,-100.00,NE,55,1.0,1.0,87,-99.99,,,-99.99,,2013-11-20 03:54:00,
2013-11-19 23:23:00,28.0,26.0,-100.00,SSW,195,0.0,0.0,88,-99.99,,,-99.99,,2013-11-20 04:23:00,
2013-11-19 23:52:00,29.0,27.0,-100.00,SE,130,1.0,1.0,90,-99.99,,,-99.99,,2013-11-20 04:52:00,